TimeMDT,TemperatureF,Dew PointF,Humidity,Sea Level PressureIn,VisibilityMPH,Wind Direction,Wind SpeedMPH,Gust SpeedMPH,PrecipitationIn,Events,Conditions,WindDirDegrees,DateUTC
12:53 AM,37.0,25.0,62,30.34,10.0,East,4.6,-,N/A,,Clear,80,2012-10-05 06:53:00
1:53 AM,37.9,26.1,62,30.34,10.0,ESE,5.8,-,N/A,,Partly Cloudy,110,2012-10-05 07:53:00
2:53 AM,37.0,25.0,62,30.32,10.0,SE,3.5,-,N/A,,Mostly Cloudy,130,2012-10-05 08:53:00
3:53 AM,37.0,25.0,62,30.31,10.0,East,5.8,-,N/A,,Overcast,100,2012-10-05 09:53:00
4:53 AM,37.9,25.0,60,30.31,10.0,ESE,5.8,-,N/A,,Overcast,110,2012-10-05 10:53:00
5:53 AM,37.0,26.1,65,30.32,10.0,ESE,4.6,-,N/A,,Overcast,110,2012-10-05 11:53:00
6:53 AM,37.0,26.1,65,30.36,10.0,East,4.6,-,0.00,,Overcast,80,2012-10-05 12:53:00
7:22 AM,35.6,28.4,75,30.30,2.5,ENE,8.1,-,0.00,Snow,Light Snow,70,2012-10-05 13:22:00
7:41 AM,33.8,30.2,87,30.32,1.5,ENE,5.8,-,0.00,Snow,Light Snow,70,2012-10-05 13:41:00
7:53 AM,33.1,30.9,92,30.39,0.8,East,5.8,-,0.00,Snow,Light Snow,80,2012-10-05 13:53:00
8:06 AM,33.8,30.2,87,30.32,1.0,East,5.8,-,0.00,Snow,Light Snow,100,2012-10-05 14:06:00
8:24 AM,33.8,32.0,93,30.33,2.5,East,5.8,-,0.01,Snow,Light Snow,100,2012-10-05 14:24:00
8:37 AM,33.8,32.0,93,30.33,0.8,East,6.9,-,0.02,Snow,Light Snow,100,2012-10-05 14:37:00
8:53 AM,33.1,32.0,96,30.40,1.2,East,4.6,-,0.03,Snow,Light Snow,80,2012-10-05 14:53:00
9:53 AM,34.0,32.0,92,30.43,2.0,East,5.8,-,0.02,Snow,Light Snow,90,2012-10-05 15:53:00
9:57 AM,33.8,32.0,93,30.36,3.0,East,4.6,-,0.00,Snow,Light Snow,90,2012-10-05 15:57:00
10:16 AM,33.8,32.0,93,30.35,8.0,East,8.1,-,0.00,,Overcast,90,2012-10-05 16:16:00
10:53 AM,35.6,33.8,93,30.36,10.0,ESE,8.1,-,N/A,,Overcast,110,2012-10-05 16:53:00
11:53 AM,36.0,34.0,93,30.42,10.0,ESE,8.1,-,0.01,,Overcast,110,2012-10-05 17:53:00
12:37 PM,35.6,33.8,93,30.35,10.0,SSE,8.1,-,0.00,,Overcast,150,2012-10-05 18:37:00
12:53 PM,36.0,34.0,93,30.41,10.0,SSE,6.9,-,0.00,,Overcast,150,2012-10-05 18:53:00
1:15 PM,37.4,33.8,87,30.34,10.0,SSE,6.9,-,N/A,,Overcast,150,2012-10-05 19:15:00
1:40 PM,37.4,33.8,87,30.33,10.0,ESE,4.6,-,N/A,,Overcast,120,2012-10-05 19:40:00
1:53 PM,37.0,33.1,86,30.39,10.0,SE,4.6,-,N/A,,Overcast,130,2012-10-05 19:53:00
2:00 PM,37.4,32.0,81,30.33,10.0,ESE,4.6,-,N/A,,Overcast,120,2012-10-05 20:00:00
2:10 PM,37.4,32.0,81,30.33,10.0,ESE,4.6,-,N/A,,Overcast,120,2012-10-05 20:10:00
2:53 PM,37.0,32.0,82,30.39,10.0,SE,3.5,-,N/A,,Overcast,140,2012-10-05 20:53:00
3:53 PM,37.0,32.0,82,30.38,10.0,Calm,Calm,-,N/A,,Overcast,0,2012-10-05 21:53:00
4:53 PM,37.9,32.0,79,30.39,10.0,Calm,Calm,-,N/A,,Overcast,0,2012-10-05 22:53:00
5:53 PM,37.9,32.0,79,30.40,10.0,Calm,Calm,-,N/A,,Overcast,0,2012-10-05 23:53:00
6:48 PM,37.4,33.8,87,30.36,8.0,WNW,3.5,-,N/A,,Overcast,290,2012-10-06 00:48:00
6:53 PM,37.4,33.8,87,30.36,6.0,WNW,4.6,-,N/A,,Overcast,290,2012-10-06 00:53:00
7:11 PM,35.6,33.8,93,30.36,6.0,WNW,3.5,-,N/A,,Overcast,300,2012-10-06 01:11:00
7:28 PM,35.6,33.8,93,30.36,5.0,NW,3.5,-,N/A,,Overcast,310,2012-10-06 01:28:00
7:51 PM,35.6,33.8,93,30.37,4.0,WNW,3.5,-,N/A,,Overcast,300,2012-10-06 01:51:00
7:53 PM,37.0,34.0,89,30.44,4.0,WNW,3.5,-,N/A,,Overcast,300,2012-10-06 01:53:00
8:53 PM,37.0,35.1,93,30.45,9.0,West,4.6,-,N/A,,Overcast,280,2012-10-06 02:53:00
9:53 PM,37.0,35.1,93,30.43,10.0,NNW,4.6,-,N/A,,Overcast,340,2012-10-06 03:53:00
10:14 PM,37.4,33.8,87,30.35,10.0,North,4.6,-,N/A,,Overcast,360,2012-10-06 04:14:00
10:53 PM,37.0,35.1,93,30.43,10.0,NNW,5.8,-,N/A,,Overcast,330,2012-10-06 04:53:00
11:53 PM,37.0,35.1,93,30.39,10.0,North,6.9,-,N/A,,Overcast,10,2012-10-06 05:53:00